TimeEST,TemperatureF,Dew PointF,Humidity,Sea Level PressureIn,VisibilityMPH,Wind Direction,Wind SpeedMPH,Gust SpeedMPH,PrecipitationIn,Events,Conditions,WindDirDegrees,DateUTC
12:32 AM,60.8,59.0,94,30.15,1.5,East,3.5,-,N/A,,Partly Cloudy,90,2013-01-20 05:32:00
12:41 AM,59.0,57.2,94,30.15,1.2,Calm,Calm,-,N/A,,Partly Cloudy,0,2013-01-20 05:41:00
12:44 AM,59.0,57.2,94,30.15,3.0,Calm,Calm,-,N/A,,Partly Cloudy,0,2013-01-20 05:44:00
12:53 AM,62.1,60.1,93,30.15,8.0,ENE,4.6,-,N/A,,Mostly Cloudy,60,2013-01-20 05:53:00
1:13 AM,62.6,60.8,94,30.14,2.5,ENE,6.9,-,N/A,,Overcast,70,2013-01-20 06:13:00
1:19 AM,62.6,60.8,94,30.14,0.8,ENE,6.9,-,N/A,,Overcast,70,2013-01-20 06:19:00
1:53 AM,63.0,63.0,100,30.14,0.8,East,4.6,-,N/A,,Mist,90,2013-01-20 06:53:00
2:36 AM,64.4,62.6,94,30.14,1.0,ENE,5.8,-,N/A,,Mist,60,2013-01-20 07:36:00
2:53 AM,64.0,63.0,96,30.14,2.5,ENE,5.8,-,N/A,,Overcast,60,2013-01-20 07:53:00
3:16 AM,64.4,62.6,94,30.14,1.8,NE,4.6,-,N/A,,Overcast,50,2013-01-20 08:16:00
3:24 AM,64.4,62.6,94,30.14,2.5,NE,3.5,-,N/A,,Overcast,50,2013-01-20 08:24:00
3:34 AM,64.4,62.6,94,30.14,1.0,NNE,4.6,-,N/A,,Mist,30,2013-01-20 08:34:00
3:41 AM,64.4,62.6,94,30.14,0.8,NNE,4.6,-,N/A,,Mist,20,2013-01-20 08:41:00
3:53 AM,63.0,62.1,97,30.14,0.5,NNE,4.6,-,N/A,Fog,Fog,30,2013-01-20 08:53:00
4:53 AM,63.0,62.1,97,30.13,0.8,ENE,5.8,-,N/A,,Mist,60,2013-01-20 09:53:00
5:04 AM,62.6,62.6,100,30.13,1.8,ENE,4.6,-,N/A,,Overcast,60,2013-01-20 10:04:00
5:11 AM,62.6,62.6,100,30.13,2.5,ENE,5.8,-,N/A,,Overcast,60,2013-01-20 10:11:00
5:25 AM,62.6,62.6,100,30.13,6.0,ENE,4.6,-,N/A,,Overcast,60,2013-01-20 10:25:00
5:53 AM,62.1,61.0,96,30.14,4.0,ENE,4.6,-,N/A,,Overcast,60,2013-01-20 10:53:00
6:08 AM,62.6,62.6,100,30.14,2.0,NNE,3.5,-,N/A,,Overcast,30,2013-01-20 11:08:00
6:33 AM,62.6,62.6,100,30.15,1.2,NE,3.5,-,N/A,,Overcast,50,2013-01-20 11:33:00
6:47 AM,62.6,60.8,94,30.15,3.0,NNE,4.6,-,N/A,,Overcast,30,2013-01-20 11:47:00
6:53 AM,62.1,61.0,96,30.15,7.0,NNE,3.5,-,N/A,,Overcast,30,2013-01-20 11:53:00
7:42 AM,62.6,60.8,94,30.17,6.0,Calm,Calm,-,N/A,,Overcast,0,2013-01-20 12:42:00
7:53 AM,62.1,61.0,96,30.17,6.0,Calm,Calm,-,N/A,,Overcast,0,2013-01-20 12:53:00
8:53 AM,64.0,62.1,93,30.18,8.0,NE,5.8,-,N/A,,Overcast,40,2013-01-20 13:53:00
9:53 AM,66.9,62.1,84,30.19,10.0,ENE,4.6,-,N/A,,Overcast,70,2013-01-20 14:53:00
10:53 AM,72.0,63.0,73,30.18,10.0,ENE,6.9,-,N/A,,Partly Cloudy,70,2013-01-20 15:53:00
11:53 AM,75.0,63.0,66,30.14,10.0,Calm,Calm,-,N/A,,Overcast,0,2013-01-20 16:53:00
12:33 PM,77.0,62.6,61,30.12,10.0,ENE,4.6,-,N/A,,Overcast,60,2013-01-20 17:33:00
12:42 PM,75.2,62.6,65,30.12,10.0,Variable,3.5,-,N/A,,Overcast,0,2013-01-20 17:42:00
12:53 PM,77.0,63.0,62,30.11,10.0,NNE,6.9,-,N/A,,Overcast,30,2013-01-20 17:53:00
1:02 PM,77.0,62.6,61,30.11,10.0,Variable,5.8,-,N/A,,Overcast,0,2013-01-20 18:02:00
1:10 PM,77.0,62.6,61,30.10,10.0,NNE,4.6,-,N/A,,Overcast,20,2013-01-20 18:10:00
1:28 PM,78.8,62.6,57,30.09,10.0,ENE,6.9,-,N/A,,Overcast,70,2013-01-20 18:28:00
1:53 PM,79.0,63.0,58,30.08,10.0,Calm,Calm,-,N/A,,Mostly Cloudy,0,2013-01-20 18:53:00
2:53 PM,78.1,61.0,56,30.06,10.0,ENE,4.6,-,N/A,,Mostly Cloudy,70,2013-01-20 19:53:00
4:53 PM,77.0,63.0,62,30.06,10.0,NNE,5.8,-,N/A,,Overcast,30,2013-01-20 21:53:00
5:53 PM,72.0,63.0,73,30.08,10.0,ENE,9.2,-,N/A,,Partly Cloudy,60,2013-01-20 22:53:00
6:53 PM,68.0,63.0,84,30.09,10.0,NE,6.9,-,N/A,,Scattered Clouds,50,2013-01-20 23:53:00
7:53 PM,68.0,62.1,81,30.09,10.0,ENE,5.8,-,N/A,,Partly Cloudy,70,2013-01-21 00:53:00
8:53 PM,66.9,63.0,87,30.10,10.0,ENE,4.6,-,N/A,,Overcast,70,2013-01-21 01:53:00
9:53 PM,66.9,63.0,87,30.11,10.0,ENE,6.9,-,N/A,,Overcast,70,2013-01-21 02:53:00
10:53 PM,66.0,62.1,87,30.12,10.0,ENE,5.8,-,N/A,,Mostly Cloudy,70,2013-01-21 03:53:00
11:53 PM,64.9,62.1,90,30.11,10.0,ENE,6.9,-,N/A,,Overcast,60,2013-01-21 04:53:00